To NAV CANADA Home Page Login to a new session Search on AWWS site Disclaimer Vers la page française équivalente Tips FAQ What's new on the site To the Forecasts and Observations / NOTAM section To "File a Flight Plan" website Publications and other links Update of the User's profile FIC Telephone Numbers My Weather Data Folder Route Weather Data Regional Weather Data Local Weather Data To the Forecasts and Observations / NOTAM section
Request Generated 08/06/2020 at 19:36:34 UTC . Weather information available at that time is displayed.

METAR/TAF

TORONTO/BUTTONVILLE MUNICIPAL/ON    

LWIS CYKZ 061900Z AUTO 19006KT 150V220 23/13 A3013=
LWIS CYKZ 061800Z AUTO 13010KT 23/12 A3015=
LWIS CYKZ 061700Z AUTO VRB02KT 23/10 A3015=

CYKZ - No TAF is issued for this station

Your time UTC time
Weather data provided by Environment Canada and NAV CANADA